OBJECT F, 44884

Orbit data source: Space-Track

You're viewing an Uncataloged Satellite

Recently launched and/or uncataloged satellites may have evolving metadata. Metadata may include but not limited to: Owner, Maufacturer, Bus, Motor, and Mission.

OBJECT F, 44884 is a satellite in SSO that was launched on Fri, 20 Dec 2019 UTC via a CHANG ZHENG 4B launch vehicle from the Taiyaun Space Center, China (TSC). Unknown objects in Earth's orbit typically refer to objects detected orbiting the Earth but have not yet been identified or cataloged. These objects could be anything from previously untracked satellites, spent rocket stages, debris from satellite collisions, or even natural meteoroids temporarily captured by Earth's gravity.

Loading next visibility...
OBJECT F details
Identifier
44884, 2019-093F
Orbit
SSO
Last TLE update9 hours ago
Origin
Flag of TBDDEYA/NUDTC (TBD)
ManufacturerShanghai ASES
MissionOperational Commercial Communications
Bus & MotorSTARLIGHTB, Unknown motor
Mass40 kg wet, ~40 kg dry
Launch date (UTC)
2019-12-20 (5 years ago)
Launch vehicle
CHANG ZHENG 4B
Launch site
Taiyaun Space Center, China (TSC)
Object typeUnknown
Shape & HBRBox, Unknown HBR
Radar Cross Section0.195 m², Medium (>0.1 m² and < 1m²)

Expand to show TLE details & history

TLE from 9 hours ago
0 OBJECT F
1 44884U 19093F   24361.51421251  .00011256  00000-0  10775-2 0  9994
2 44884  97.8241  81.1622 0011675  44.3042 315.9110 14.93307127271960
Epoch: 2024-12-26T12:20Z
Definitive object data (Epoch: 2024-12-26T12:20:27.96Z)
Latitude-0.00003°
Longitude160.55319°
Altitude584.836 km
Speed7.571 km/s
True Right ascension05h 24m 38s
True Declination0° 00' 00"
Sunlit
Object was in full shadow at TLE epoch
Visualization TLE readout
Latitude50.90525°
Longitude-9.4069°
Altitude595.148 km
Speed7.568 km/s
Apparent Right ascension12h 32m 57s
Apparent Declination25° 36' 54"
Sunlit
Object is in daylight
Visualization observer readout
Local Sidereal Time20:20:10
Azimuth306.36° NW
Elevation-1.976°
Doppler factor1
Orbital elements
Apogee altitude592.781 km
Perigee altitude576.523 km
Semi-major axis6,962.789 km
Eccentricity0.0011675
Inclination97.8241°
RAAN81.1622°
Arg. of periapsis44.3042°
True anomaly315.81782°
Mean anomaly315.911°
Eccentric anomaly315.86442°
Mean motion3.73567 °/min
BSTAR0.0010775
Orbital period96.37 mins
Loading maneuver chart data...
Loading historical data...
Loading historical data...
Loading historical data...
Loading historical data...
Loading historical data...
Loading historical data...
Loading historical data...

OBJECT F Visibility forecast

Observer location: undefined°, undefined

Span
Click to sort rows by Start time (UTC) header in descending order
Start Az.
Max El. time (UTC)
Max El. Az.
Max El.
End time (UTC)
End Az.
5 mins2024-12-27 04:34:16.249Z111.097° ESE2024-12-27 04:37:16.249Z63.113° ENE17.695°2024-12-27 04:39:16.249Z29.931° NE
5 mins2024-12-27 06:10:16.249Z213.64° SW2024-12-27 06:12:16.249Z262.04° W28.616°2024-12-27 06:15:16.249Z322.368° NNW
6 mins2024-12-27 17:52:16.249Z40.422° NE2024-12-27 17:55:16.249Z109.003° ESE28.984°2024-12-27 17:58:16.249Z160.905° S
|